| time (UTC) | temp F | wind direction | speed MPH | gust MPH | rain 1hr in | rain 24hr in | rain mn in | humidity % | barometer mb |
| 20260509101302 | 48 | 29 | 0.0 | 1.0 | 0.00 | 0.00 | 0.00 | 97 | 1011.7 |
| 20260509100800 | 48 | 28 | 0.0 | 0.0 | 0.00 | 0.00 | 0.00 | 96 | 1011.8 |
| 20260509100257 | 48 | 57 | 0.0 | 0.0 | 0.00 | 0.00 | 0.00 | 96 | 1011.7 |
| 20260509095753 | 48 | 93 | 1.0 | 1.0 | 0.00 | 0.00 | 0.00 | 96 | 1011.8 |
| 20260509095251 | 48 | 76 | 0.0 | 1.0 | 0.00 | 0.00 | 0.00 | 96 | 1011.7 |
| 20260509094748 | 48 | 52 | 0.0 | 1.0 | 0.00 | 0.00 | 0.00 | 95 | 1011.6 |
| 20260509094245 | 49 | 44 | 0.0 | 0.0 | 0.00 | 0.00 | 0.00 | 95 | 1011.6 |
| 20260509093743 | 49 | 318 | 2.0 | 3.0 | 0.00 | 0.00 | 0.00 | 94 | 1011.8 |
| 20260509093240 | 48 | 119 | 4.0 | 4.0 | 0.00 | 0.00 | 0.00 | 93 | 1011.6 |
| 20260509092738 | 48 | 97 | 0.0 | 0.0 | 0.00 | 0.00 | 0.00 | 95 | 1011.9 |
| 20260509092235 | 48 | 101 | 1.0 | 2.0 | 0.00 | 0.00 | 0.00 | 95 | 1011.8 |
| 20260509091733 | 48 | 90 | 0.0 | 0.0 | 0.00 | 0.00 | 0.00 | 96 | 1011.8 |
| 20260509091229 | 48 | 34 | 0.0 | 0.0 | 0.00 | 0.00 | 0.00 | 96 | 1011.6 |
| 20260509090727 | 48 | 89 | 0.0 | 0.0 | 0.00 | 0.00 | 0.00 | 96 | 1011.4 |
| 20260509090224 | 48 | 27 | 0.0 | 1.0 | 0.00 | 0.00 | 0.00 | 96 | 1011.4 |
| 20260509085722 | 48 | 74 | 0.0 | 0.0 | 0.00 | 0.00 | 0.00 | 96 | 1011.5 |
| 20260509085219 | 48 | 111 | 1.0 | 2.0 | 0.00 | 0.00 | 0.00 | 96 | 1011.4 |
| 20260509084715 | 48 | 54 | 0.0 | 0.0 | 0.00 | 0.00 | 0.00 | 96 | 1011.4 |
| 20260509084212 | 48 | 279 | 1.0 | 2.0 | 0.00 | 0.00 | 0.00 | 96 | 1011.4 |
| 20260509083710 | 48 | 231 | 2.0 | 3.0 | 0.00 | 0.00 | 0.00 | 96 | 1011.6 |
| 20260509083207 | 48 | 246 | 1.0 | 2.0 | 0.00 | 0.00 | 0.00 | 96 | 1011.4 |
| 20260509082703 | 48 | 61 | 0.0 | 0.0 | 0.00 | 0.00 | 0.00 | 95 | 1011.6 |
| 20260509082200 | 48 | 12 | 0.0 | 0.0 | 0.00 | 0.00 | 0.00 | 94 | 1011.5 |
| 20260509081657 | 48 | 68 | 0.0 | 0.0 | 0.00 | 0.00 | 0.00 | 93 | 1011.4 |
| 20260509081154 | 48 | 152 | 0.0 | 0.0 | 0.00 | 0.00 | 0.00 | 93 | 1011.4 |
| 20260509080652 | 48 | 104 | 0.0 | 0.0 | 0.00 | 0.00 | 0.00 | 94 | 1011.6 |
| 20260509080150 | 48 | 126 | 0.0 | 2.0 | 0.00 | 0.00 | 0.00 | 94 | 1011.2 |
| 20260509075648 | 48 | 96 | 1.0 | 2.0 | 0.00 | 0.00 | 0.00 | 94 | 1011.3 |
| 20260509075145 | 48 | 93 | 1.0 | 1.0 | 0.00 | 0.00 | 0.00 | 95 | 1011.3 |
| 20260509074642 | 48 | 95 | 0.0 | 0.0 | 0.00 | 0.00 | 0.00 | 95 | 1011.5 |
| 20260509074138 | 48 | 96 | 0.0 | 1.0 | 0.00 | 0.00 | 0.00 | 95 | 1011.6 |
| 20260509073635 | 48 | 78 | 0.0 | 0.0 | 0.00 | 0.00 | 0.00 | 94 | 1011.5 |
| 20260509073131 | 48 | 40 | 0.0 | 0.0 | 0.00 | 0.00 | 0.00 | 94 | 1011.5 |
| 20260509072628 | 49 | 10 | 0.0 | 0.0 | 0.00 | 0.00 | 0.00 | 94 | 1011.5 |
| 20260509072125 | 48 | 115 | 0.0 | 0.0 | 0.00 | 0.00 | 0.00 | 95 | 1011.4 |
| 20260509071622 | 48 | 115 | 0.0 | 0.0 | 0.00 | 0.00 | 0.00 | 95 | 1011.6 |
| 20260509071119 | 48 | 116 | 0.0 | 0.0 | 0.00 | 0.00 | 0.00 | 95 | 1011.6 |
| 20260509070616 | 48 | 108 | 0.0 | 0.0 | 0.00 | 0.00 | 0.00 | 95 | 1011.7 |
| 20260509070112 | 48 | 125 | 2.0 | 2.0 | 0.00 | 0.00 | 0.00 | 95 | 1011.7 |
| 20260509065608 | 48 | 110 | 0.0 | 1.0 | 0.00 | 0.00 | 0.00 | 94 | 1011.9 |
| 20260509065104 | 49 | 112 | 0.0 | 1.0 | 0.00 | 0.00 | 0.00 | 94 | 1012.1 |
| 20260509064602 | 49 | 288 | 2.0 | 2.0 | 0.00 | 0.00 | 0.00 | 93 | 1012.1 |
| 20260509064100 | 49 | 87 | 0.0 | 0.0 | 0.00 | 0.00 | 0.00 | 92 | 1012.0 |
| 20260509063555 | 49 | 87 | 1.0 | 2.0 | 0.00 | 0.00 | 0.00 | 92 | 1012.0 |
| 20260509063053 | 49 | 83 | 1.0 | 2.0 | 0.00 | 0.00 | 0.00 | 93 | 1012.0 |
| 20260509062550 | 49 | 0 | 0.0 | 0.0 | 0.00 | 0.00 | 0.00 | 93 | 1012.5 |
| 20260509062047 | 49 | 63 | 0.0 | 1.0 | 0.00 | 0.00 | 0.00 | 93 | 1012.5 |
| 20260509061544 | 49 | 151 | 2.0 | 2.0 | 0.00 | 0.00 | 0.00 | 93 | 1012.5 |
| 20260509061041 | 49 | 75 | 0.0 | 0.0 | 0.00 | 0.00 | 0.00 | 92 | 1012.3 |
| 20260509060539 | 49 | 74 | 1.0 | 2.0 | 0.00 | 0.00 | 0.00 | 93 | 1012.5 |
| 20260509060034 | 49 | 76 | 3.0 | 3.0 | 0.00 | 0.00 | 0.00 | 93 | 1012.5 |
| 20260509055530 | 49 | 119 | 0.0 | 0.0 | 0.00 | 0.00 | 0.00 | 94 | 1012.8 |
| 20260509055026 | 49 | 124 | 0.0 | 0.0 | 0.00 | 0.00 | 0.00 | 94 | 1013.0 |
| 20260509054523 | 49 | 117 | 0.0 | 1.0 | 0.00 | 0.00 | 0.00 | 93 | 1012.8 |
| 20260509054021 | 49 | 114 | 0.0 | 1.0 | 0.00 | 0.00 | 0.00 | 93 | 1012.9 |
| 20260509053519 | 49 | 102 | 0.0 | 0.0 | 0.00 | 0.00 | 0.00 | 93 | 1013.0 |
| 20260509053016 | 49 | 127 | 1.0 | 2.0 | 0.00 | 0.00 | 0.00 | 92 | 1012.8 |
| 20260509052514 | 49 | 26 | 0.0 | 0.0 | 0.00 | 0.00 | 0.00 | 92 | 1013.1 |
| 20260509052012 | 49 | 29 | 0.0 | 0.0 | 0.00 | 0.00 | 0.00 | 91 | 1013.2 |
| 20260509051509 | 49 | 308 | 1.0 | 2.0 | 0.00 | 0.00 | 0.00 | 91 | 1013.2 |
| 20260509051006 | 49 | 94 | 0.0 | 0.0 | 0.00 | 0.00 | 0.00 | 90 | 1013.3 |
| 20260509050502 | 50 | 156 | 2.0 | 2.0 | 0.00 | 0.00 | 0.00 | 88 | 1013.2 |
| 20260509045959 | 49 | 99 | 0.0 | 1.0 | 0.00 | 0.00 | 0.00 | 86 | 1013.5 |
| 20260509045456 | 49 | 119 | 1.0 | 1.0 | 0.00 | 0.00 | 0.00 | 90 | 1013.5 |
| 20260509044953 | 49 | 106 | 2.0 | 3.0 | 0.00 | 0.00 | 0.00 | 89 | 1013.4 |
| 20260509044451 | 49 | 122 | 2.0 | 3.0 | 0.00 | 0.00 | 0.00 | 89 | 1013.5 |
| 20260509043948 | 49 | 73 | 0.0 | 0.0 | 0.00 | 0.00 | 0.00 | 88 | 1013.4 |
| 20260509043444 | 50 | 113 | 2.0 | 2.0 | 0.00 | 0.00 | 0.00 | 89 | 1013.6 |
| 20260509042939 | 50 | 97 | 0.0 | 0.0 | 0.00 | 0.00 | 0.00 | 88 | 1013.8 |
| 20260509042437 | 50 | 245 | 0.0 | 0.0 | 0.00 | 0.00 | 0.00 | 86 | 1013.6 |
| 20260509041933 | 50 | 245 | 0.0 | 0.0 | 0.00 | 0.00 | 0.00 | 86 | 1013.7 |
| 20260509041430 | 51 | 246 | 0.0 | 0.0 | 0.00 | 0.00 | 0.00 | 86 | 1013.7 |
| 20260509040928 | 51 | 243 | 1.0 | 1.0 | 0.00 | 0.00 | 0.00 | 85 | 1013.6 |
| 20260509040426 | 51 | 100 | 0.0 | 1.0 | 0.00 | 0.00 | 0.00 | 80 | 1013.4 |
| 20260509035922 | 51 | 73 | 1.0 | 2.0 | 0.00 | 0.00 | 0.00 | 80 | 1013.4 |
| 20260509035419 | 51 | 88 | 1.0 | 2.0 | 0.00 | 0.00 | 0.00 | 81 | 1013.6 |
| 20260509034915 | 51 | 115 | 2.0 | 2.0 | 0.00 | 0.00 | 0.00 | 84 | 1013.6 |
| 20260509034414 | 51 | 88 | 0.0 | 0.0 | 0.00 | 0.00 | 0.00 | 83 | 1013.4 |
| 20260509033910 | 51 | 88 | 0.0 | 1.0 | 0.00 | 0.00 | 0.00 | 84 | 1013.4 |
| 20260509033407 | 51 | 81 | 0.0 | 2.0 | 0.00 | 0.00 | 0.00 | 84 | 1013.3 |
| 20260509032904 | 50 | 80 | 1.0 | 2.0 | 0.00 | 0.00 | 0.00 | 84 | 1013.3 |
| 20260509032401 | 50 | 102 | 2.0 | 2.0 | 0.00 | 0.00 | 0.00 | 86 | 1013.0 |
| 20260509031859 | 50 | 92 | 1.0 | 2.0 | 0.00 | 0.00 | 0.00 | 88 | 1013.3 |
| 20260509031356 | 50 | 48 | 0.0 | 0.0 | 0.00 | 0.00 | 0.00 | 88 | 1013.3 |
| 20260509030854 | 50 | 82 | 0.0 | 0.0 | 0.00 | 0.00 | 0.00 | 88 | 1013.3 |
| 20260509030351 | 50 | 87 | 1.0 | 2.0 | 0.00 | 0.00 | 0.00 | 87 | 1013.2 |
| 20260509025848 | 50 | 119 | 4.0 | 6.0 | 0.00 | 0.00 | 0.00 | 88 | 1013.0 |
| 20260509025343 | 50 | 81 | 0.0 | 1.0 | 0.00 | 0.00 | 0.00 | 87 | 1013.2 |
| 20260509024839 | 50 | 23 | 1.0 | 2.0 | 0.00 | 0.00 | 0.00 | 87 | 1013.1 |
| 20260509024335 | 50 | 72 | 0.0 | 0.0 | 0.00 | 0.00 | 0.00 | 87 | 1013.1 |
| 20260509023833 | 50 | 104 | 0.0 | 0.0 | 0.00 | 0.00 | 0.00 | 86 | 1013.1 |
| 20260509023330 | 50 | 158 | 2.0 | 2.0 | 0.00 | 0.00 | 0.00 | 86 | 1012.8 |
| 20260509022827 | 50 | 230 | 0.0 | 2.0 | 0.00 | 0.00 | 0.00 | 85 | 1013.2 |
| 20260509022324 | 50 | 14 | 0.0 | 0.0 | 0.00 | 0.00 | 0.00 | 85 | 1013.2 |
| 20260509021820 | 50 | 100 | 0.0 | 0.0 | 0.00 | 0.00 | 0.00 | 85 | 1013.1 |
| 20260509021318 | 51 | 116 | 1.0 | 1.0 | 0.00 | 0.00 | 0.00 | 84 | 1013.1 |
| 20260509020815 | 51 | 110 | 0.0 | 1.0 | 0.00 | 0.00 | 0.00 | 84 | 1013.3 |
| 20260509020313 | 51 | 98 | 0.0 | 0.0 | 0.00 | 0.00 | 0.00 | 81 | 1013.4 |
| 20260509015811 | 51 | 267 | 2.0 | 3.0 | 0.00 | 0.00 | 0.00 | 81 | 1013.5 |
| 20260509015309 | 51 | 147 | 0.0 | 2.0 | 0.00 | 0.00 | 0.00 | 79 | 1013.4 |
| 20260509014805 | 52 | 126 | 1.0 | 2.0 | 0.00 | 0.00 | 0.00 | 80 | 1013.4 |
| 20260509014302 | 52 | 127 | 2.0 | 3.0 | 0.00 | 0.00 | 0.00 | 77 | 1013.2 |
| 20260509013758 | 51 | 114 | 3.0 | 3.0 | 0.00 | 0.00 | 0.00 | 77 | 1013.3 |
| 20260509013254 | 51 | 105 | 2.0 | 2.0 | 0.00 | 0.00 | 0.00 | 77 | 1013.4 |
| 20260509012751 | 52 | 88 | 0.0 | 1.0 | 0.00 | 0.00 | 0.00 | 77 | 1013.2 |
| 20260509012248 | 52 | 89 | 1.0 | 1.0 | 0.00 | 0.00 | 0.00 | 74 | 1013.4 |
| 20260509011745 | 51 | 91 | 1.0 | 2.0 | 0.00 | 0.00 | 0.00 | 75 | 1013.3 |
| 20260509011242 | 51 | 91 | 2.0 | 3.0 | 0.00 | 0.00 | 0.00 | 77 | 1013.2 |
| 20260509010740 | 51 | 64 | 0.0 | 0.0 | 0.00 | 0.00 | 0.00 | 77 | 1013.2 |
| 20260509010237 | 52 | 57 | 0.0 | 0.0 | 0.00 | 0.00 | 0.00 | 76 | 1012.9 |
| 20260509005735 | 52 | 20 | 1.0 | 2.0 | 0.00 | 0.00 | 0.00 | 75 | 1012.9 |
| 20260509005232 | 53 | 119 | 2.0 | 3.0 | 0.00 | 0.00 | 0.00 | 72 | 1012.8 |
| 20260509004731 | 52 | 103 | 0.0 | 0.0 | 0.00 | 0.00 | 0.00 | 73 | 1012.7 |
| 20260509004229 | 53 | 96 | 0.0 | 0.0 | 0.00 | 0.00 | 0.00 | 74 | 1012.7 |
| 20260509003727 | 54 | 86 | 0.0 | 0.0 | 0.00 | 0.00 | 0.00 | 71 | 1012.8 |
| 20260509003224 | 55 | 112 | 0.0 | 0.0 | 0.00 | 0.00 | 0.00 | 66 | 1012.8 |
| 20260509002721 | 56 | 47 | 0.0 | 0.0 | 0.00 | 0.00 | 0.00 | 64 | 1012.6 |
| 20260509002219 | 57 | 242 | 3.0 | 4.0 | 0.00 | 0.00 | 0.00 | 62 | 1012.7 |
| 20260509001717 | 57 | 44 | 0.0 | 0.0 | 0.00 | 0.00 | 0.00 | 61 | 1012.6 |
| 20260509001212 | 57 | 247 | 2.0 | 3.0 | 0.00 | 0.00 | 0.00 | 61 | 1012.8 |
| 20260509000711 | 57 | 148 | 0.0 | 0.0 | 0.00 | 0.00 | 0.00 | 62 | 1012.8 |
| 20260509000207 | 57 | 338 | 0.0 | 0.0 | 0.00 | 0.00 | 0.00 | 61 | 1012.9 |
| 20260508235704 | 57 | 132 | 1.0 | 7.0 | 0.00 | 0.00 | 0.00 | 61 | 1012.8 |
| 20260508235201 | 57 | 215 | 1.0 | 2.0 | 0.00 | 0.00 | 0.00 | 61 | 1012.8 |
| 20260508234658 | 57 | 64 | 0.0 | 3.0 | 0.00 | 0.00 | 0.00 | 61 | 1012.7 |
| 20260508234154 | 57 | 237 | 3.0 | 3.0 | 0.00 | 0.00 | 0.00 | 61 | 1012.7 |
| 20260508233654 | 57 | 285 | 5.0 | 9.0 | 0.00 | 0.00 | 0.00 | 60 | 1012.8 |
| 20260508233151 | 57 | 264 | 2.0 | 6.0 | 0.00 | 0.00 | 0.00 | 60 | 1012.7 |
| 20260508232648 | 57 | 325 | 4.0 | 6.0 | 0.00 | 0.00 | 0.00 | 61 | 1012.6 |
| 20260508232145 | 58 | 123 | 0.0 | 6.0 | 0.00 | 0.00 | 0.00 | 59 | 1013.0 |
| 20260508231643 | 58 | 242 | 6.0 | 7.0 | 0.00 | 0.00 | 0.00 | 59 | 1012.7 |
| 20260508231139 | 58 | 23 | 3.0 | 6.0 | 0.00 | 0.00 | 0.00 | 59 | 1012.7 |
| 20260508230636 | 58 | 266 | 4.0 | 9.0 | 0.00 | 0.00 | 0.00 | 59 | 1012.5 |
| 20260508230133 | 58 | 270 | 7.0 | 9.0 | 0.00 | 0.00 | 0.00 | 58 | 1012.5 |
| 20260508225631 | 58 | 302 | 5.0 | 7.0 | 0.00 | 0.00 | 0.00 | 58 | 1012.3 |
| 20260508225126 | 58 | 237 | 9.0 | 11.0 | 0.00 | 0.00 | 0.00 | 58 | 1012.5 |
| 20260508224624 | 58 | 231 | 4.0 | 6.0 | 0.00 | 0.00 | 0.00 | 59 | 1012.2 |
| 20260508224122 | 58 | 269 | 4.0 | 11.0 | 0.00 | 0.00 | 0.00 | 58 | 1012.3 |
| 20260508223619 | 58 | 236 | 12.0 | 14.0 | 0.00 | 0.00 | 0.00 | 58 | 1012.6 |
| 20260508223116 | 58 | 239 | 8.0 | 11.0 | 0.00 | 0.00 | 0.00 | 58 | 1012.5 |
| 20260508222613 | 58 | 250 | 10.0 | 13.0 | 0.00 | 0.00 | 0.00 | 59 | 1012.5 |
| 20260508222110 | 58 | 258 | 9.0 | 13.0 | 0.00 | 0.00 | 0.00 | 59 | 1012.6 |
| 20260508221607 | 58 | 252 | 8.0 | 11.0 | 0.00 | 0.00 | 0.00 | 60 | 1012.6 |
| 20260508221103 | 58 | 244 | 10.0 | 13.0 | 0.00 | 0.00 | 0.00 | 60 | 1012.8 |
| 20260508220559 | 58 | 247 | 8.0 | 14.0 | 0.00 | 0.00 | 0.00 | 60 | 1012.9 |
| 20260508220055 | 58 | 252 | 7.0 | 13.0 | 0.00 | 0.00 | 0.00 | 60 | 1012.8 |
| 20260508215553 | 58 | 247 | 8.0 | 11.0 | 0.00 | 0.00 | 0.00 | 59 | 1012.8 |
| 20260508215049 | 58 | 294 | 12.0 | 16.0 | 0.00 | 0.00 | 0.00 | 58 | 1012.8 |
| 20260508214547 | 58 | 246 | 12.0 | 15.0 | 0.00 | 0.00 | 0.00 | 59 | 1012.7 |
| 20260508214043 | 58 | 235 | 14.0 | 25.0 | 0.00 | 0.00 | 0.00 | 57 | 1012.6 |
| 20260508213541 | 58 | 254 | 11.0 | 18.0 | 0.00 | 0.00 | 0.00 | 57 | 1012.9 |
| 20260508213036 | 59 | 252 | 15.0 | 21.0 | 0.00 | 0.00 | 0.00 | 58 | 1012.7 |
| 20260508212533 | 59 | 235 | 15.0 | 21.0 | 0.00 | 0.00 | 0.00 | 56 | 1012.7 |
| 20260508212029 | 59 | 245 | 12.0 | 19.0 | 0.00 | 0.00 | 0.00 | 56 | 1012.3 |
| 20260508211525 | 59 | 237 | 9.0 | 13.0 | 0.00 | 0.00 | 0.00 | 58 | 1012.5 |
| 20260508211022 | 59 | 246 | 6.0 | 17.0 | 0.00 | 0.00 | 0.00 | 58 | 1012.2 |
| 20260508210518 | 59 | 239 | 12.0 | 22.0 | 0.00 | 0.00 | 0.00 | 58 | 1012.5 |
| 20260508210016 | 59 | 203 | 7.0 | 11.0 | 0.00 | 0.00 | 0.00 | 59 | 1012.6 |
| 20260508205513 | 59 | 249 | 8.0 | 11.0 | 0.00 | 0.00 | 0.00 | 59 | 1012.7 |
| 20260508205009 | 59 | 239 | 8.0 | 10.0 | 0.00 | 0.00 | 0.00 | 60 | 1012.5 |
| 20260508204506 | 59 | 236 | 6.0 | 9.0 | 0.00 | 0.00 | 0.00 | 58 | 1012.5 |
| 20260508204001 | 59 | 231 | 12.0 | 14.0 | 0.00 | 0.00 | 0.00 | 59 | 1012.5 |
| 20260508203457 | 59 | 236 | 14.0 | 17.0 | 0.00 | 0.00 | 0.00 | 58 | 1012.5 |
| 20260508202953 | 59 | 251 | 10.0 | 14.0 | 0.00 | 0.00 | 0.00 | 58 | 1012.7 |
| 20260508202451 | 59 | 282 | 7.0 | 11.0 | 0.00 | 0.00 | 0.00 | 58 | 1012.6 |
| 20260508201948 | 59 | 250 | 11.0 | 13.0 | 0.00 | 0.00 | 0.00 | 58 | 1012.9 |
| 20260508201444 | 59 | 243 | 4.0 | 15.0 | 0.00 | 0.00 | 0.00 | 57 | 1012.7 |
| 20260508200941 | 59 | 274 | 12.0 | 15.0 | 0.00 | 0.00 | 0.00 | 58 | 1012.8 |
| 20260508200439 | 59 | 253 | 18.0 | 22.0 | 0.00 | 0.00 | 0.00 | 57 | 1012.8 |
| 20260508195938 | 58 | 242 | 9.0 | 21.0 | 0.00 | 0.00 | 0.00 | 58 | 1012.9 |
| 20260508195436 | 58 | 245 | 16.0 | 19.0 | 0.00 | 0.00 | 0.00 | 58 | 1013.3 |
| 20260508194932 | 59 | 244 | 13.0 | 18.0 | 0.00 | 0.00 | 0.00 | 59 | 1013.1 |
| 20260508194429 | 60 | 221 | 10.0 | 15.0 | 0.00 | 0.00 | 0.00 | 53 | 1013.0 |
| 20260508193926 | 61 | 232 | 11.0 | 13.0 | 0.00 | 0.00 | 0.00 | 51 | 1012.7 |
| 20260508193423 | 61 | 236 | 8.0 | 9.0 | 0.00 | 0.00 | 0.00 | 50 | 1012.5 |
| 20260508192919 | 61 | 2 | 4.0 | 13.0 | 0.00 | 0.00 | 0.00 | 49 | 1012.5 |
| 20260508192416 | 61 | 302 | 10.0 | 23.0 | 0.00 | 0.00 | 0.00 | 50 | 1012.3 |
| 20260508191913 | 61 | 279 | 10.0 | 11.0 | 0.00 | 0.00 | 0.00 | 50 | 1012.5 |
| 20260508191411 | 61 | 238 | 8.0 | 14.0 | 0.00 | 0.00 | 0.00 | 50 | 1012.6 |
| 20260508190908 | 61 | 252 | 11.0 | 24.0 | 0.00 | 0.00 | 0.00 | 49 | 1012.8 |
| 20260508190404 | 61 | 233 | 7.0 | 11.0 | 0.00 | 0.00 | 0.00 | 50 | 1012.9 |
| 20260508185900 | 61 | 228 | 16.0 | 18.0 | 0.00 | 0.00 | 0.00 | 49 | 1012.6 |
| 20260508185358 | 61 | 238 | 17.0 | 19.0 | 0.00 | 0.00 | 0.00 | 48 | 1012.7 |
| 20260508184855 | 61 | 252 | 14.0 | 22.0 | 0.00 | 0.00 | 0.00 | 48 | 1012.8 |
| 20260508184353 | 62 | 246 | 11.0 | 19.0 | 0.00 | 0.00 | 0.00 | 46 | 1012.5 |
| 20260508183849 | 61 | 262 | 11.0 | 15.0 | 0.00 | 0.00 | 0.00 | 46 | 1012.8 |
| 20260508183346 | 61 | 249 | 11.0 | 23.0 | 0.00 | 0.00 | 0.00 | 46 | 1012.8 |
| 20260508182842 | 61 | 258 | 10.0 | 14.0 | 0.00 | 0.00 | 0.00 | 46 | 1012.7 |
| 20260508182339 | 62 | 231 | 11.0 | 14.0 | 0.00 | 0.00 | 0.00 | 45 | 1012.5 |
| 20260508181834 | 62 | 251 | 10.0 | 16.0 | 0.00 | 0.00 | 0.00 | 45 | 1012.5 |
| 20260508181331 | 63 | 245 | 11.0 | 16.0 | 0.00 | 0.00 | 0.00 | 44 | 1012.5 |
| 20260508180828 | 63 | 282 | 6.0 | 17.0 | 0.00 | 0.00 | 0.00 | 44 | 1012.5 |
| 20260508180325 | 62 | 288 | 9.0 | 11.0 | 0.00 | 0.00 | 0.00 | 44 | 1012.7 |
| 20260508175821 | 62 | 278 | 5.0 | 10.0 | 0.00 | 0.00 | 0.00 | 44 | 1013.1 |
| 20260508175318 | 62 | 295 | 3.0 | 8.0 | 0.00 | 0.00 | 0.00 | 45 | 1013.0 |
| 20260508174816 | 63 | 239 | 15.0 | 17.0 | 0.00 | 0.00 | 0.00 | 44 | 1013.2 |
| 20260508174313 | 62 | 232 | 11.0 | 14.0 | 0.00 | 0.00 | 0.00 | 46 | 1013.2 |
| 20260508173809 | 62 | 230 | 9.0 | 15.0 | 0.00 | 0.00 | 0.00 | 46 | 1013.3 |
| 20260508173306 | 62 | 224 | 6.0 | 14.0 | 0.00 | 0.00 | 0.00 | 43 | 1013.3 |
| 20260508172802 | 62 | 229 | 4.0 | 7.0 | 0.00 | 0.00 | 0.00 | 45 | 1013.3 |
| 20260508172300 | 60 | 317 | 13.0 | 19.0 | 0.00 | 0.00 | 0.00 | 47 | 1013.3 |
| 20260508171755 | 60 | 252 | 15.0 | 19.0 | 0.00 | 0.00 | 0.00 | 48 | 1013.4 |
| 20260508171252 | 60 | 252 | 11.0 | 21.0 | 0.00 | 0.00 | 0.00 | 47 | 1013.3 |
| 20260508170749 | 61 | 264 | 7.0 | 10.0 | 0.00 | 0.00 | 0.00 | 45 | 1013.3 |
| 20260508170247 | 61 | 280 | 6.0 | 19.0 | 0.00 | 0.00 | 0.00 | 46 | 1013.5 |
| 20260508165744 | 62 | 237 | 6.0 | 11.0 | 0.00 | 0.00 | 0.00 | 46 | 1013.5 |
| 20260508165241 | 61 | 253 | 17.0 | 18.0 | 0.00 | 0.00 | 0.00 | 46 | 1013.9 |
| 20260508164737 | 62 | 234 | 7.0 | 10.0 | 0.00 | 0.00 | 0.00 | 49 | 1013.7 |
| 20260508164234 | 62 | 248 | 10.0 | 15.0 | 0.00 | 0.00 | 0.00 | 48 | 1013.4 |
| 20260508163732 | 61 | 254 | 15.0 | 16.0 | 0.00 | 0.00 | 0.00 | 49 | 1013.6 |
| 20260508163229 | 60 | 237 | 11.0 | 17.0 | 0.00 | 0.00 | 0.00 | 49 | 1013.8 |
| 20260508162725 | 61 | 257 | 12.0 | 17.0 | 0.00 | 0.00 | 0.00 | 48 | 1013.9 |
| 20260508162222 | 61 | 252 | 7.0 | 18.0 | 0.00 | 0.00 | 0.00 | 48 | 1013.9 |
| 20260508161719 | 61 | 297 | 12.0 | 15.0 | 0.00 | 0.00 | 0.00 | 47 | 1013.8 |
| 20260508161216 | 60 | 281 | 8.0 | 27.0 | 0.00 | 0.00 | 0.00 | 50 | 1013.8 |
| 20260508160714 | 60 | 250 | 6.0 | 15.0 | 0.00 | 0.00 | 0.00 | 49 | 1014.2 |
| 20260508160212 | 60 | 248 | 13.0 | 19.0 | 0.00 | 0.00 | 0.00 | 48 | 1014.2 |
| 20260508155708 | 60 | 256 | 5.0 | 9.0 | 0.00 | 0.00 | 0.00 | 48 | 1014.2 |
| 20260508155205 | 60 | 240 | 6.0 | 17.0 | 0.00 | 0.00 | 0.00 | 50 | 1014.3 |
| 20260508154702 | 60 | 274 | 7.0 | 21.0 | 0.00 | 0.00 | 0.00 | 49 | 1014.0 |
| 20260508154159 | 60 | 238 | 13.0 | 17.0 | 0.00 | 0.00 | 0.00 | 49 | 1014.1 |
| 20260508153656 | 60 | 234 | 14.0 | 16.0 | 0.00 | 0.00 | 0.00 | 50 | 1014.0 |
| 20260508153153 | 60 | 245 | 12.0 | 18.0 | 0.00 | 0.00 | 0.00 | 50 | 1014.3 |
| 20260508152649 | 59 | 313 | 7.0 | 14.0 | 0.00 | 0.00 | 0.00 | 50 | 1014.3 |
| 20260508152145 | 59 | 276 | 8.0 | 14.0 | 0.00 | 0.00 | 0.00 | 49 | 1014.2 |
| 20260508151642 | 59 | 288 | 9.0 | 18.0 | 0.00 | 0.00 | 0.00 | 49 | 1014.1 |
| 20260508151138 | 58 | 298 | 5.0 | 15.0 | 0.00 | 0.00 | 0.00 | 50 | 1014.2 |
| 20260508150636 | 59 | 258 | 15.0 | 21.0 | 0.00 | 0.00 | 0.00 | 51 | 1014.2 |
| 20260508150132 | 58 | 284 | 7.0 | 21.0 | 0.00 | 0.00 | 0.00 | 51 | 1014.3 |
| 20260508145628 | 57 | 259 | 11.0 | 16.0 | 0.00 | 0.00 | 0.00 | 53 | 1014.2 |
| 20260508145124 | 57 | 216 | 11.0 | 19.0 | 0.00 | 0.00 | 0.00 | 51 | 1014.0 |
| 20260508144623 | 57 | 227 | 18.0 | 21.0 | 0.00 | 0.00 | 0.00 | 52 | 1014.2 |
| 20260508144120 | 56 | 237 | 7.0 | 14.0 | 0.00 | 0.00 | 0.00 | 51 | 1014.2 |
| 20260508143617 | 56 | 235 | 7.0 | 16.0 | 0.00 | 0.00 | 0.00 | 52 | 1014.2 |
| 20260508143114 | 56 | 259 | 9.0 | 14.0 | 0.00 | 0.00 | 0.00 | 54 | 1014.3 |
| 20260508142610 | 56 | 272 | 9.0 | 16.0 | 0.00 | 0.00 | 0.00 | 53 | 1014.4 |
| 20260508142107 | 56 | 245 | 10.0 | 16.0 | 0.00 | 0.00 | 0.00 | 52 | 1014.4 |
| 20260508141604 | 56 | 270 | 15.0 | 22.0 | 0.00 | 0.00 | 0.00 | 53 | 1014.4 |
| 20260508141101 | 56 | 272 | 6.0 | 15.0 | 0.00 | 0.00 | 0.00 | 54 | 1014.4 |
| 20260508140558 | 55 | 246 | 10.0 | 11.0 | 0.00 | 0.00 | 0.00 | 53 | 1014.5 |
| 20260508140055 | 56 | 243 | 12.0 | 18.0 | 0.00 | 0.00 | 0.00 | 54 | 1014.4 |
| 20260508135550 | 57 | 248 | 2.0 | 15.0 | 0.00 | 0.00 | 0.00 | 52 | 1014.4 |
| 20260508135047 | 56 | 285 | 8.0 | 16.0 | 0.00 | 0.00 | 0.00 | 53 | 1014.4 |
| 20260508134544 | 55 | 233 | 6.0 | 13.0 | 0.00 | 0.00 | 0.00 | 55 | 1014.4 |
| 20260508134041 | 55 | 217 | 11.0 | 19.0 | 0.00 | 0.00 | 0.00 | 53 | 1014.5 |
| 20260508133537 | 55 | 255 | 6.0 | 18.0 | 0.00 | 0.00 | 0.00 | 53 | 1014.4 |
| 20260508133035 | 55 | 239 | 7.0 | 14.0 | 0.00 | 0.00 | 0.00 | 56 | 1014.4 |
| 20260508132533 | 54 | 242 | 12.0 | 15.0 | 0.00 | 0.00 | 0.00 | 56 | 1014.4 |
| 20260508132029 | 54 | 250 | 8.0 | 14.0 | 0.00 | 0.00 | 0.00 | 56 | 1014.4 |
| 20260508131524 | 54 | 222 | 4.0 | 8.0 | 0.00 | 0.00 | 0.00 | 57 | 1014.4 |
| 20260508131021 | 54 | 110 | 2.0 | 7.0 | 0.00 | 0.00 | 0.00 | 59 | 1014.6 |
| 20260508130519 | 54 | 248 | 2.0 | 8.0 | 0.00 | 0.00 | 0.00 | 58 | 1014.5 |
| 20260508130015 | 53 | 277 | 1.0 | 4.0 | 0.00 | 0.00 | 0.00 | 59 | 1014.6 |
| 20260508125510 | 53 | 262 | 3.0 | 7.0 | 0.00 | 0.00 | 0.00 | 60 | 1014.8 |
| 20260508125008 | 52 | 133 | 4.0 | 8.0 | 0.00 | 0.00 | 0.00 | 57 | 1014.6 |
| 20260508124506 | 52 | 52 | 1.0 | 4.0 | 0.00 | 0.00 | 0.00 | 57 | 1014.7 |
| 20260508124003 | 52 | 124 | 3.0 | 4.0 | 0.00 | 0.00 | 0.00 | 58 | 1014.6 |
| 20260508123502 | 51 | 39 | 2.0 | 4.0 | 0.00 | 0.00 | 0.00 | 59 | 1014.7 |
| 20260508122958 | 50 | 217 | 4.0 | 6.0 | 0.00 | 0.00 | 0.00 | 59 | 1014.8 |
| 20260508122455 | 49 | 218 | 4.0 | 6.0 | 0.00 | 0.00 | 0.00 | 64 | 1014.6 |
| 20260508121952 | 48 | 237 | 2.0 | 3.0 | 0.00 | 0.00 | 0.00 | 69 | 1014.9 |
| 20260508121450 | 46 | 93 | 0.0 | 2.0 | 0.00 | 0.00 | 0.00 | 75 | 1014.7 |
| 20260508120948 | 44 | 31 | 0.0 | 0.0 | 0.00 | 0.00 | 0.00 | 82 | 1015.0 |
| 20260508120445 | 44 | 28 | 0.0 | 0.0 | 0.00 | 0.00 | 0.00 | 82 | 1015.0 |
| 20260508115943 | 44 | 28 | 0.0 | 0.0 | 0.00 | 0.00 | 0.00 | 80 | 1014.8 |
| 20260508115440 | 44 | 31 | 0.0 | 0.0 | 0.00 | 0.00 | 0.00 | 81 | 1014.8 |
| 20260508114936 | 43 | 30 | 0.0 | 0.0 | 0.00 | 0.00 | 0.00 | 82 | 1014.8 |
| 20260508114434 | 42 | 30 | 0.0 | 0.0 | 0.00 | 0.00 | 0.00 | 81 | 1014.9 |
| 20260508113930 | 42 | 31 | 0.0 | 0.0 | 0.00 | 0.00 | 0.00 | 82 | 1014.9 |
| 20260508113428 | 41 | 31 | 0.0 | 0.0 | 0.00 | 0.00 | 0.00 | 82 | 1015.0 |
| 20260508112925 | 41 | 358 | 0.0 | 1.0 | 0.00 | 0.00 | 0.00 | 83 | 1014.8 |
| 20260508112422 | 40 | 91 | 0.0 | 0.0 | 0.00 | 0.00 | 0.00 | 84 | 1014.7 |
| 20260508111918 | 39 | 34 | 0.0 | 1.0 | 0.00 | 0.00 | 0.00 | 86 | 1014.8 |
| 20260508111415 | 39 | 66 | 0.0 | 1.0 | 0.00 | 0.00 | 0.00 | 85 | 1014.6 |
| 20260508110913 | 39 | 63 | 1.0 | 1.0 | 0.00 | 0.00 | 0.00 | 87 | 1014.7 |
| 20260508110411 | 39 | 30 | 0.0 | 4.0 | 0.00 | 0.00 | 0.00 | 86 | 1014.7 |
| 20260508105910 | 40 | 77 | 0.0 | 0.0 | 0.00 | 0.00 | 0.00 | 84 | 1014.5 |
| 20260508105406 | 41 | 301 | 4.0 | 4.0 | 0.00 | 0.00 | 0.00 | 81 | 1014.2 |
| 20260508104904 | 40 | 83 | 2.0 | 2.0 | 0.00 | 0.00 | 0.00 | 80 | 1014.3 |
| 20260508104401 | 39 | 46 | 0.0 | 3.0 | 0.00 | 0.00 | 0.00 | 83 | 1014.3 |
| 20260508103858 | 40 | 42 | 0.0 | 2.0 | 0.00 | 0.00 | 0.00 | 84 | 1014.3 |
| 20260508103354 | 39 | 70 | 0.0 | 0.0 | 0.00 | 0.00 | 0.00 | 86 | 1014.3 |
| 20260508102852 | 38 | 40 | 0.0 | 1.0 | 0.00 | 0.00 | 0.00 | 84 | 1014.3 |
| 20260508102350 | 37 | 103 | 1.0 | 2.0 | 0.00 | 0.00 | 0.00 | 83 | 1014.4 |
| 20260508101847 | 37 | 101 | 0.0 | 1.0 | 0.00 | 0.00 | 0.00 | 82 | 1014.3 |